This is the latest recevied weather packets stored in our database for station/object DL3TR-13. If no packets are shown the sender has not sent any weather packets the latest 10 day(s).
| Time | Temp. | Humidity | Pressure | Rain* | Wind** | Luminosity | Snow |
|---|---|---|---|---|---|---|---|
| 1777483992 | 15° C | 37% | 1017.8 hPa | 0 mm | - | 32 W/m² | - |
| 1777483392 | 15° C | 38% | 1017.7 hPa | 0 mm | - | 35 W/m² | - |
| 1777482792 | 15.56° C | 38% | 1017.5 hPa | 0 mm | - | 39 W/m² | - |
| 1777482192 | 15.56° C | 38% | 1017.4 hPa | 0 mm | - | 42 W/m² | - |
| 1777481592 | 15.56° C | 38% | 1017.4 hPa | 0 mm | - | 46 W/m² | - |
| 1777480992 | 16.11° C | 38% | 1017.5 hPa | 0 mm | - | 49 W/m² | - |
| 1777480392 | 16.11° C | 38% | 1017.4 hPa | 0 mm | - | 54 W/m² | - |
| 1777479792 | 16.11° C | 39% | 1017.3 hPa | 0 mm | - | 295 W/m² | - |
| 1777479192 | 16.67° C | 39% | 1017.1 hPa | 0 mm | - | 323 W/m² | - |
| 1777478592 | 16.67° C | 39% | 1017 hPa | 0 mm | - | 353 W/m² | - |
| 1777477992 | 16.67° C | 37% | 1017.2 hPa | 0 mm | - | 381 W/m² | - |
| 1777477392 | 16.67° C | 38% | 1017.3 hPa | 0 mm | - | 406 W/m² | - |
| 1777476792 | 17.22° C | 38% | 1017.1 hPa | 0 mm | - | 439 W/m² | - |
| 1777476192 | 16.67° C | 38% | 1017.1 hPa | 0 mm | - | 464 W/m² | - |
| 1777475592 | 17.22° C | 39% | 1016.9 hPa | 0 mm | - | 376 W/m² | - |
| 1777474992 | 17.22° C | 40% | 1016.9 hPa | 0 mm | - | 482 W/m² | - |
| 1777474392 | 17.22° C | 39% | 1016.9 hPa | 0 mm | - | 531 W/m² | - |
| 1777473792 | 17.22° C | 40% | 1016.9 hPa | 0 mm | - | 557 W/m² | - |
| 1777473192 | 17.22° C | 39% | 1016.8 hPa | 0 mm | - | 577 W/m² | - |
| 1777472592 | 17.78° C | 40% | 1016.7 hPa | 0 mm | - | 601 W/m² | - |
| 1777471992 | 17.22° C | 42% | 1016.8 hPa | 0 mm | - | 622 W/m² | - |
| 1777471392 | 17.78° C | 43% | 1016.8 hPa | 0 mm | - | 638 W/m² | - |
| 1777470792 | 17.78° C | 42% | 1016.8 hPa | 0 mm | - | 661 W/m² | - |
| 1777470192 | 18.33° C | 43% | 1016.9 hPa | 0 mm | - | 673 W/m² | - |
| 1777469592 | 17.78° C | 45% | 1016.8 hPa | 0 mm | - | 693 W/m² | - |
* Rain latest hour (hover to see other rain measurements)
** Current wind speed in m/s (hover to see current wind gust speed)